Date,TemperatureHighF,TemperatureAvgF,TemperatureLowF,DewpointHighF,DewpointAvgF,DewpointLowF,HumidityHigh,HumidityAvg,HumidityLow,PressureMaxIn,PressureMinIn,WindSpeedMaxMPH,WindSpeedAvgMPH,GustSpeedMaxMPH,PrecipitationSumIn
2012-2-27,39.0,32.5,27.0,28.0,24.1,19.0,74,71,61,30.44,30.01,11,5,26,0.04
2012-2-28,39.0,33.4,26.0,29.0,23.9,16.0,74,68,59,30.47,30.01,10,3,18,0.01
2012-2-29,48.0,36.9,33.0,37.0,20.4,14.0,73,52,42,30.01,29.39,15,7,25,0.71
2012-3-1,38.0,34.8,33.0,26.0,19.5,14.0,68,54,44,29.83,29.51,6,2,14,0.08
2012-3-2,40.0,37.1,34.0,31.0,24.2,14.0,70,60,42,29.83,29.10,11,4,24,0.43
2012-3-3,34.0,31.3,27.0,25.0,20.5,10.0,72,65,45,29.74,29.27,12,8,30,0.03
2012-3-4,28.0,25.8,19.0,20.0,16.5,6.0,74,68,49,29.95,29.74,8,2,12,0.04
2012-3-5,29.0,23.8,19.0,20.0,15.3,11.0,74,70,61,30.35,29.95,5,2,15,0.01
2012-3-6,65.0,45.0,29.0,43.0,31.4,21.0,74,60,44,30.32,29.87,12,6,25,0.00
2012-3-7,63.0,59.3,54.0,50.0,42.8,35.0,65,55,46,29.97,29.73,13,8,26,0.00
2012-3-8,63.0,42.2,32.0,52.0,31.3,18.0,73,66,42,30.09,29.66,17,6,36,0.18
2012-3-9,36.0,29.2,21.0,27.0,18.3,13.0,75,64,52,30.53,30.06,13,5,21,0.01
2012-3-10,54.0,37.6,21.0,31.0,21.9,14.0,75,55,37,30.53,30.15,15,6,29,0.00
2012-3-11,62.0,51.8,39.0,35.0,30.7,-99.9,64,47,31,30.25,30.09,9,3,16,0.00
2012-3-12,65.0,54.5,48.0,54.0,35.8,25.0,71,50,35,30.09,29.66,9,4,22,0.62
2012-3-13,56.0,49.7,41.0,42.0,31.4,23.0,71,50,41,30.06,29.78,10,3,18,0.20
2012-3-14,80.0,59.1,38.0,61.0,45.2,30.0,74,61,40,30.06,29.88,10,2,20,0.01
2012-3-15,70.0,63.8,56.0,59.0,47.7,28.0,70,57,35,29.96,29.88,9,2,16,0.00
2012-3-16,75.0,59.9,52.0,60.0,34.7,24.0,60,40,27,30.05,29.95,3,1,7,0.01
2012-3-17,78.0,66.6,54.0,60.0,47.1,28.0,65,50,34,30.08,29.96,9,3,18,0.01
2012-3-18,75.0,64.8,54.0,60.0,46.7,23.0,66,53,28,30.03,29.94,4,2,8,0.00
2012-3-19,79.0,68.8,59.0,65.0,54.0,37.0,66,59,43,29.99,29.89,6,2,9,0.00
2012-3-20,83.0,72.0,63.0,61.0,54.1,-99.9,67,56,40,30.02,29.92,7,3,15,0.00
2012-3-21,84.0,72.7,60.0,62.0,56.4,45.0,68,57,43,30.08,29.98,6,2,14,0.00
2012-3-22,84.0,70.3,61.0,62.0,54.3,-99.9,68,59,43,30.06,29.97,6,-6,14,0.00
2012-3-23,67.0,61.1,57.0,55.0,34.4,25.0,66,38,28,29.99,29.80,7,3,16,0.63
2012-3-24,64.0,57.3,53.0,51.0,34.2,24.0,63,43,30,29.85,29.75,4,1,12,0.43
2012-3-25,68.0,56.5,49.0,56.0,38.5,24.0,67,52,32,30.10,29.85,7,3,16,0.00
2012-3-26,47.0,38.7,30.0,37.0,24.5,21.0,75,58,41,30.38,30.10,9,4,16,0.00
2012-3-27,62.0,44.8,34.0,43.0,26.2,17.0,59,48,36,30.35,29.73,13,6,25,0.00
2012-3-28,63.0,53.9,46.0,51.0,42.4,35.0,72,65,52,29.97,29.66,10,6,24,0.00
2012-3-29,48.0,40.5,32.0,35.0,30.8,23.0,75,68,57,30.14,29.97,8,2,15,0.00
2012-3-30,37.0,34.8,33.0,29.0,22.8,12.0,75,63,41,30.06,29.78,10,6,20,0.42
2012-3-31,45.0,39.7,35.0,36.0,29.6,15.0,75,67,43,30.01,29.87,6,2,12,0.02
2012-4-1,58.0,47.2,39.0,47.0,38.2,30.0,73,71,65,29.87,29.68,5,1,8,0.00
2012-4-2,59.0,48.8,39.0,41.0,36.7,31.0,75,64,49,30.00,29.79,10,5,18,0.00
2012-4-3,62.0,53.0,42.0,52.0,41.3,18.0,73,65,37,29.97,29.81,10,3,20,0.70
2012-4-4,61.0,49.9,34.0,44.0,33.6,21.0,75,56,31,29.96,29.84,6,2,15,0.04
2012-4-5,50.0,42.9,35.0,32.0,29.0,27.0,74,59,45,30.14,29.91,7,3,16,0.00
2012-4-6,59.0,44.0,28.0,35.0,28.2,14.0,75,56,34,30.30,30.12,5,1,17,0.00
2012-4-7,64.0,48.6,31.0,37.0,31.1,14.0,74,53,34,30.29,30.07,6,1,12,0.00
2012-4-8,56.0,50.7,44.0,42.0,34.6,31.0,73,55,38,30.13,30.00,10,4,23,0.01
2012-4-9,54.0,46.6,37.0,39.0,30.2,22.0,74,55,34,30.00,29.84,14,4,28,0.00
2012-4-10,40.0,36.9,34.0,30.0,26.9,24.0,74,67,58,30.05,29.89,10,5,20,0.01
2012-4-11,53.0,41.8,31.0,35.0,29.3,24.0,76,62,42,30.21,30.04,8,3,20,0.01
2012-4-12,55.0,42.8,28.0,36.0,29.8,18.0,75,61,47,30.26,30.14,7,2,15,0.00
2012-4-13,64.0,51.3,31.0,38.0,32.4,16.0,75,51,34,30.22,30.03,6,2,14,0.00
2012-4-14,62.0,57.1,51.0,53.0,45.9,35.0,73,67,46,30.03,29.81,8,2,21,0.00
2012-4-15,74.0,66.9,57.0,62.0,49.2,-99.9,69,57,30,29.82,29.61,8,4,23,0.86
2012-4-16,69.0,53.6,41.0,58.0,41.7,31.0,74,66,29,30.11,29.47,15,8,36,0.60
2012-4-17,51.0,41.2,33.0,35.0,30.4,24.0,75,66,46,30.37,30.11,6,2,12,0.01
2012-4-18,65.0,51.6,32.0,47.0,37.8,16.0,73,60,47,30.30,29.89,7,3,14,0.00
2012-4-19,64.0,57.7,51.0,54.0,45.7,26.0,72,65,33,29.93,29.75,6,1,12,0.10
2012-4-20,54.0,44.7,41.0,29.0,22.5,20.0,63,42,34,29.94,29.62,9,3,20,0.22
2012-4-21,54.0,45.6,31.0,32.0,27.2,12.0,71,49,37,30.01,29.93,7,2,14,0.01
2012-4-22,55.0,44.0,33.0,31.0,26.7,-99.9,76,55,37,30.04,29.98,11,3,24,0.00
2012-4-23,55.0,44.3,34.0,30.0,25.9,22.0,72,50,32,30.02,29.70,16,5,29,0.00
2012-4-24,58.0,47.8,37.0,35.0,28.7,22.0,65,48,34,29.70,29.62,13,4,24,0.00
2012-4-25,62.0,47.5,34.0,46.0,35.4,25.0,75,64,44,29.77,29.69,6,2,12,0.04
2012-4-26,52.0,47.1,38.0,42.0,34.8,22.0,74,62,46,30.12,29.60,11,6,24,0.03
2012-4-27,53.0,40.0,27.0,33.0,26.0,20.0,76,59,37,30.25,30.12,8,2,17,0.00
2012-4-28,48.0,43.4,40.0,37.0,29.9,25.0,72,59,48,30.23,30.13,7,3,17,0.00
2012-4-29,62.0,48.9,29.0,40.0,28.0,-99.9,76,48,30,30.32,30.10,7,3,15,0.02
2012-4-30,54.0,46.5,42.0,40.0,32.4,20.0,75,60,34,30.12,29.85,8,4,17,0.61
2012-5-1,64.0,57.1,48.0,53.0,44.3,24.0,72,63,37,30.02,29.85,6,3,12,0.01
2012-5-2,78.0,69.4,53.0,64.0,53.9,28.0,72,59,32,29.88,29.71,15,4,29,0.00
2012-5-3,83.0,72.6,64.0,71.0,62.0,51.0,72,69,56,29.88,29.76,11,3,20,0.00
2012-5-4,77.0,69.3,59.0,65.0,55.1,32.0,71,62,30,29.97,29.82,5,2,20,0.37
2012-5-5,59.0,55.5,52.0,49.0,46.0,31.0,74,71,37,30.06,29.93,6,3,14,0.05
2012-5-6,65.0,56.4,50.0,55.0,45.9,-99.9,74,70,37,30.06,29.87,7,2,15,0.42
2012-5-7,56.0,52.5,49.0,45.0,33.8,23.0,73,51,33,29.91,29.79,5,2,13,0.52
2012-5-8,66.0,57.6,45.0,53.0,39.2,20.0,71,52,31,29.82,29.77,6,2,17,0.01
2012-5-9,60.0,53.6,45.0,49.0,38.6,21.0,72,57,34,29.87,29.75,8,3,14,0.01
2012-5-10,63.0,51.9,36.0,43.0,36.9,18.0,73,57,42,29.98,29.87,9,2,18,0.01
2012-5-11,73.0,61.1,37.0,47.0,39.6,15.0,72,47,34,30.10,29.99,6,2,13,0.00
2012-5-12,63.0,59.2,55.0,52.0,47.4,35.0,71,65,46,30.16,30.04,3,1,8,0.01
2012-5-13,74.0,60.3,49.0,46.0,38.4,-99.9,71,48,25,30.21,30.06,4,1,12,0.01
2012-5-14,73.0,57.8,41.0,45.0,37.6,17.0,72,49,32,30.07,29.95,5,1,13,0.00
2012-5-15,78.0,62.9,45.0,54.0,44.1,22.0,73,52,38,29.95,29.71,10,3,20,0.13
2012-5-16,64.0,54.4,41.0,43.0,37.6,27.0,73,55,33,30.09,29.84,7,2,18,0.17
2012-5-17,71.0,55.6,39.0,47.0,37.5,29.0,72,53,33,30.18,30.04,5,1,12,0.00
2012-5-18,80.0,66.0,51.0,52.0,45.9,40.0,69,50,32,30.08,29.96,5,2,12,0.00
2012-5-19,87.0,70.5,53.0,58.0,51.0,43.0,72,53,30,30.05,29.96,5,1,12,0.00
2012-5-20,89.0,75.3,64.0,65.0,58.0,-99.9,70,57,41,30.03,29.85,5,1,17,0.03
2012-5-21,67.0,59.4,53.0,54.0,41.7,27.0,71,53,33,30.05,29.91,7,3,14,0.30
2012-5-22,72.0,57.3,43.0,51.0,43.0,27.0,72,60,42,30.04,29.88,6,1,12,0.01
2012-5-23,80.0,67.5,45.0,56.0,47.5,20.0,69,50,33,29.90,29.74,6,1,15,0.00
2012-5-24,86.0,73.0,60.0,63.0,56.2,47.0,70,57,37,29.80,29.61,7,3,18,0.00
2012-5-27,84.0,78.4,70.0,70.0,66.1,60.0,70,66,60,29.97,29.81,7,4,15,0.00
2012-5-28,90.0,79.1,64.0,69.0,62.3,42.0,71,58,43,29.81,29.60,9,3,22,0.00
2012-5-29,77.0,68.6,59.0,63.0,47.0,33.0,71,48,29,29.77,29.63,12,3,22,0.10
2012-5-30,66.0,58.3,50.0,54.0,47.0,35.0,73,66,55,29.91,29.76,6,2,15,0.01
2012-5-31,57.0,50.1,44.0,47.0,38.3,26.0,75,65,37,29.98,29.86,5,1,12,0.00
2012-6-1,52.0,48.6,45.0,30.0,24.8,21.0,48,39,36,29.86,29.65,6,3,13,0.00
2012-6-2,69.0,56.1,46.0,52.0,40.7,25.0,73,57,41,29.71,29.60,12,4,23,0.00
2012-6-3,76.0,64.0,54.0,56.0,49.7,-99.9,74,62,44,29.75,29.66,6,2,18,0.00
2012-6-4,73.0,63.5,53.0,57.0,50.5,42.0,74,63,46,29.89,29.75,5,1,12,0.00
2012-6-5,70.0,60.8,51.0,52.0,47.7,34.0,74,63,49,30.00,29.89,6,2,15,0.00
2012-6-6,79.0,63.1,47.0,55.0,42.8,23.0,69,48,34,30.04,29.97,3,1,8,0.00
2012-6-7,79.0,65.4,50.0,57.0,42.6,24.0,71,44,33,30.07,29.99,5,1,15,0.00
2012-6-8,81.0,66.5,47.0,58.0,46.3,23.0,71,49,36,30.01,29.84,7,2,16,0.00
2012-6-9,85.0,74.4,60.0,59.0,55.3,50.0,72,53,37,29.88,29.80,7,3,17,0.00
2012-6-10,90.0,75.6,59.0,64.0,57.1,-99.9,72,57,39,29.93,29.84,5,1,13,0.00
2012-6-11,84.0,77.0,69.0,70.0,64.8,59.0,71,66,54,29.85,29.71,9,2,14,0.00
2012-6-12,74.0,66.4,55.0,62.0,52.1,46.0,72,61,49,30.06,29.72,7,2,17,0.00
2012-6-13,74.0,60.0,45.0,48.0,42.6,30.0,75,55,36,30.19,30.06,5,1,12,0.00
2012-6-14,81.0,67.5,53.0,51.0,47.5,45.0,74,51,30,30.16,30.01,5,2,13,0.00
2012-6-15,89.0,75.2,60.0,61.0,55.1,49.0,73,52,34,30.07,30.00,7,2,13,0.00
2012-6-16,89.0,75.8,65.0,68.0,60.9,41.0,73,61,33,30.04,29.81,6,1,14,0.02
2012-6-17,79.0,71.2,64.0,64.0,50.2,-99.9,72,51,30,29.85,29.75,7,2,22,0.09
2012-6-18,91.0,73.6,61.0,75.0,55.0,33.0,68,53,29,29.79,29.61,9,3,23,0.75
2012-6-19,91.0,83.5,77.0,73.0,69.1,65.0,70,62,50,29.89,29.72,7,4,20,0.01
2012-6-20,88.0,79.8,73.0,69.0,65.9,63.0,71,63,50,29.96,29.82,9,3,21,0.00
2012-6-21,78.0,73.7,64.0,67.0,61.3,44.0,71,65,51,29.88,29.77,6,2,20,0.16
2012-6-22,79.0,67.8,56.0,59.0,46.4,28.0,70,47,31,29.94,29.88,5,1,12,0.01
2012-6-23,83.0,67.9,52.0,61.0,46.2,25.0,69,47,31,30.00,29.93,4,1,9,0.00
2012-6-24,84.0,72.6,60.0,65.0,54.4,30.0,70,54,31,29.97,29.85,9,2,15,0.00
2012-6-25,76.0,65.5,51.0,59.0,48.5,34.0,72,56,40,30.04,29.91,7,2,15,0.00
2012-6-26,81.0,65.4,49.0,56.0,47.5,27.0,72,54,38,30.05,29.90,3,1,12,0.00
2012-6-27,88.0,71.1,53.0,61.0,48.2,26.0,69,45,32,29.94,29.72,7,2,17,0.00
2012-6-28,92.0,79.7,66.0,76.0,66.7,56.0,71,65,59,29.77,29.65,6,2,16,0.00
2012-6-29,86.0,75.3,64.0,65.0,52.9,33.0,71,47,30,29.83,29.70,7,1,14,0.00
2012-6-30,86.0,76.8,64.0,70.0,62.7,36.0,70,62,31,29.80,29.72,6,2,14,0.00
2012-7-1,89.0,75.4,63.0,69.0,54.3,33.0,71,49,30,29.90,29.79,3,1,12,0.00
2012-7-2,96.0,78.3,60.0,73.0,55.7,31.0,71,48,31,29.96,29.84,5,1,10,0.00
2012-7-3,91.0,82.0,73.0,74.0,66.9,54.0,70,61,48,29.84,29.73,8,2,13,0.01
2012-7-4,96.0,85.4,73.0,78.0,69.7,41.0,70,60,31,29.78,29.73,7,2,15,0.01
2012-7-5,98.0,86.5,75.0,77.0,70.0,59.0,71,59,42,29.85,29.77,5,2,17,0.00
2012-7-6,102.0,89.2,71.0,78.0,70.7,48.0,71,56,42,29.88,29.81,5,1,12,0.00
2012-7-7,95.0,85.2,77.0,77.0,70.9,56.0,71,63,48,29.92,29.81,7,2,14,0.00
2012-7-8,85.0,76.5,68.0,68.0,60.3,55.0,73,59,38,30.01,29.92,7,2,14,0.00
2012-7-9,86.0,76.2,62.0,64.0,58.8,40.0,73,56,40,30.00,29.92,6,1,12,0.00
2012-7-10,84.0,73.5,58.0,60.0,55.4,36.0,73,55,37,30.08,29.98,6,2,12,0.00
2012-7-11,87.0,74.7,58.0,60.0,55.4,45.0,73,53,34,30.11,30.03,3,1,9,0.00
2012-7-12,89.0,75.6,59.0,57.0,54.9,47.0,73,52,33,30.08,29.99,4,1,9,0.00
2012-7-13,91.0,75.2,63.0,68.0,60.9,54.0,73,63,35,30.03,29.96,6,1,12,0.05
2012-7-16,94.0,84.7,65.0,73.0,64.0,34.0,68,51,30,29.96,29.75,9,3,18,0.00
2012-7-17,96.0,86.1,74.0,76.0,69.0,58.0,69,58,46,29.77,29.70,10,3,20,0.00
2012-7-18,89.0,81.0,74.0,73.0,67.8,55.0,70,65,52,29.91,29.76,5,2,13,0.00
2012-7-19,79.0,71.1,64.0,68.0,43.6,34.0,71,39,28,29.93,29.81,7,2,17,0.80
2012-7-20,83.0,74.3,61.0,62.0,55.3,32.0,70,52,34,30.04,29.94,5,2,16,0.05
2012-7-21,83.0,74.3,59.0,68.0,58.9,29.0,70,60,32,30.03,29.94,6,2,14,0.00
2012-7-22,88.0,80.0,68.0,73.0,64.8,37.0,69,61,31,30.01,29.94,8,3,15,0.00
2012-7-23,92.0,83.2,75.0,75.0,69.7,63.0,70,65,53,29.94,29.76,7,3,17,0.01
2012-7-24,86.0,78.2,69.0,70.0,61.7,57.0,71,58,40,29.92,29.78,6,2,14,0.01
2012-7-26,86.0,79.0,70.0,74.0,62.7,36.0,71,59,29,29.69,29.48,7,2,14,0.43
2012-7-27,78.0,69.7,65.0,60.0,42.1,34.0,63,38,29,29.91,29.68,5,1,13,0.63
2012-7-28,82.0,73.0,59.0,63.0,54.4,30.0,70,53,33,30.06,29.91,4,2,12,0.02
2012-7-29,86.0,74.9,55.0,66.0,55.2,27.0,68,51,32,30.06,29.94,3,1,8,0.00
2012-7-30,89.0,79.9,61.0,68.0,58.6,30.0,67,49,29,29.96,29.78,5,2,12,0.00
2012-7-31,83.0,76.3,63.0,68.0,59.4,31.0,69,57,28,29.92,29.78,9,2,23,0.27
2012-8-1,84.0,74.4,57.0,66.0,55.1,27.0,68,52,30,29.92,29.78,3,1,12,0.00
2012-8-2,86.0,75.2,65.0,71.0,60.4,34.0,68,61,32,29.82,29.77,5,1,10,0.02
2012-8-3,94.0,81.1,68.0,73.0,57.8,34.0,67,47,27,29.85,29.80,4,1,9,0.02
2012-8-4,91.0,79.6,69.0,72.0,56.0,34.0,68,46,26,29.88,29.70,5,1,10,0.04
2012-8-5,78.0,72.6,59.0,64.0,50.5,35.0,70,48,26,30.09,29.76,6,2,22,0.04
2012-8-6,80.0,66.7,51.0,62.0,45.5,25.0,69,47,31,30.12,29.96,5,1,14,0.00
2012-8-7,86.0,72.8,57.0,65.0,52.7,31.0,67,50,34,29.96,29.85,7,2,14,0.00
2012-8-8,82.0,73.9,65.0,61.0,58.6,54.0,69,60,44,29.95,29.88,4,2,10,0.00
2012-8-9,70.0,64.7,59.0,58.0,39.6,29.0,69,41,29,29.91,29.81,3,1,12,0.52
2012-8-10,59.0,57.5,56.0,31.0,28.9,28.0,37,34,32,29.83,29.75,6,3,18,1.87
2012-8-11,76.0,66.2,58.0,62.0,49.5,29.0,70,56,33,29.92,29.78,7,2,18,0.05
2012-8-12,77.0,63.6,51.0,61.0,44.7,-99.9,70,53,30,29.98,29.91,4,1,12,0.00
2012-8-13,69.0,64.1,61.0,56.0,40.9,29.0,63,44,30,29.94,29.89,3,0,5,0.04
2012-8-14,78.0,66.1,57.0,64.0,42.2,27.0,67,44,29,29.91,29.84,5,1,10,0.03
2012-8-15,82.0,67.6,57.0,64.0,42.2,26.0,66,41,26,29.91,29.84,4,0,8,0.01
2012-8-16,77.0,68.6,64.0,60.0,45.4,30.0,66,46,25,29.87,29.67,6,2,17,0.28
2012-8-17,70.0,63.1,52.0,56.0,43.4,26.0,69,50,30,29.96,29.80,5,2,14,0.07
2012-8-18,74.0,59.8,46.0,57.0,38.4,19.0,67,47,29,30.00,29.90,4,1,12,0.00
2012-8-19,75.0,62.0,50.0,59.0,39.5,21.0,67,45,27,29.92,29.85,5,1,12,0.00
2012-8-20,76.0,63.5,51.0,56.0,40.0,21.0,67,44,28,29.94,29.88,5,1,9,0.00
2012-8-24,89.0,77.6,63.0,67.0,59.8,45.0,68,55,41,30.02,29.94,3,1,8,0.00
2012-8-25,92.0,78.4,62.0,67.0,60.0,30.0,67,55,30,30.01,29.96,4,1,12,0.00
2012-8-26,87.0,76.4,65.0,70.0,59.3,31.0,67,57,23,30.00,29.93,4,1,14,0.07
2012-8-27,84.0,76.0,64.0,67.0,53.5,32.0,67,48,24,29.98,29.91,5,2,12,0.01
2012-8-28,79.0,70.2,55.0,60.0,52.2,23.0,66,54,27,30.09,29.98,4,1,10,0.00
2012-8-29,84.0,72.4,53.0,62.0,50.9,22.0,67,48,26,30.07,29.96,3,1,8,0.00
2012-8-30,86.0,75.4,55.0,63.0,54.4,23.0,65,49,26,30.01,29.88,6,2,12,0.00
2012-8-31,87.0,76.8,68.0,70.0,63.2,54.0,67,63,53,29.99,29.90,7,2,18,0.00
2012-9-1,81.0,72.7,65.0,62.0,57.8,53.0,68,60,49,30.06,29.96,4,2,10,0.00
2012-9-2,85.0,74.7,66.0,68.0,60.4,53.0,68,61,53,29.97,29.86,5,2,13,0.00
2012-9-5,85.0,76.6,65.0,69.0,55.7,30.0,67,51,23,29.82,29.68,7,2,15,0.01
2012-9-6,84.0,74.6,63.0,66.0,54.1,27.0,67,51,25,29.86,29.76,4,1,12,0.01
2012-9-7,76.0,66.5,56.0,62.0,44.7,23.0,67,47,26,29.86,29.67,6,1,18,0.05
2012-9-8,69.0,61.9,52.0,54.0,44.7,22.0,68,55,28,29.79,29.70,8,2,18,0.01
2012-9-9,71.0,62.8,49.0,54.0,43.7,19.0,69,51,28,30.07,29.79,5,2,14,0.01
2012-9-10,74.0,63.6,43.0,55.0,45.1,15.0,67,52,29,30.19,30.07,5,1,10,0.00
2012-9-11,80.0,69.2,50.0,62.0,52.1,20.0,68,55,30,30.12,30.02,7,2,17,0.00
2012-9-12,83.0,70.2,60.0,62.0,55.9,45.0,69,61,44,30.11,30.04,6,2,16,0.00
2012-9-13,73.0,65.4,54.0,61.0,52.0,22.0,70,63,31,30.26,30.07,5,1,12,0.14
2012-9-14,71.0,57.1,46.0,52.0,33.9,18.0,69,43,29,30.27,30.21,6,1,13,0.20
2012-9-15,76.0,57.7,41.0,48.0,35.0,14.0,69,44,31,30.29,30.10,4,1,9,0.01
2012-9-16,76.0,60.9,47.0,59.0,40.1,20.0,67,47,29,30.09,29.94,6,1,13,0.00
2012-9-17,77.0,62.5,50.0,61.0,43.0,22.0,67,50,28,29.95,29.65,6,2,20,0.05
2012-9-18,59.0,53.1,46.0,45.0,32.4,20.0,71,48,27,29.93,29.65,7,2,22,0.07
2012-9-19,67.0,53.2,35.0,45.0,33.5,13.0,68,47,35,30.04,29.81,7,2,17,0.01
2012-9-20,65.0,59.0,52.0,50.0,44.1,30.0,70,59,42,29.83,29.75,6,2,16,0.11
2012-9-21,64.0,52.6,45.0,48.0,31.6,18.0,70,46,31,29.85,29.73,7,1,18,0.13
2012-9-22,59.0,49.1,42.0,46.0,29.4,16.0,71,48,32,30.06,29.69,5,1,14,0.18
2012-9-23,53.0,46.5,39.0,41.0,27.2,-99.9,71,50,34,30.18,30.05,5,1,14,0.07
2012-9-24,63.0,50.5,37.0,43.0,30.5,14.0,66,46,36,30.17,29.83,14,3,23,0.01
2012-9-25,72.0,59.8,48.0,57.0,46.9,29.0,71,63,45,29.85,29.77,6,1,12,0.00
2012-9-26,69.0,59.3,50.0,50.0,42.6,26.0,70,55,33,30.10,29.82,4,1,12,0.00
2012-9-27,66.0,56.5,48.0,50.0,44.6,35.0,71,65,53,30.19,30.10,5,2,12,0.00
2012-9-28,69.0,57.5,48.0,50.0,43.7,34.0,71,61,38,30.14,30.05,5,1,10,0.00
2012-9-29,73.0,55.8,41.0,52.0,35.8,17.0,71,48,33,30.07,29.89,4,1,10,0.00
2012-9-30,67.0,55.4,45.0,46.0,36.6,20.0,71,50,35,29.95,29.89,9,2,20,0.00
2012-10-1,67.0,51.5,38.0,47.0,32.2,15.0,69,48,36,29.91,29.80,2,0,6,0.00
2012-10-2,72.0,60.4,49.0,50.0,45.1,35.0,70,58,41,29.87,29.78,7,1,13,0.00
2012-10-3,61.0,58.6,57.0,50.0,36.2,25.0,70,46,28,29.96,29.86,1,0,6,0.18
2012-10-4,76.0,63.0,57.0,58.0,39.3,25.0,68,44,29,30.00,29.88,8,3,20,0.56
2012-10-5,58.0,50.8,46.0,48.0,40.6,35.0,71,68,60,30.02,29.93,7,3,17,0.01
2012-10-6,47.0,44.8,42.0,37.0,34.8,32.0,72,68,63,30.09,29.91,5,2,12,0.00
2012-10-7,46.0,42.2,33.0,35.0,30.2,18.0,72,63,39,30.11,30.07,3,0,10,0.03
2012-10-8,56.0,44.9,32.0,34.0,27.5,15.0,68,51,39,30.13,30.01,7,2,16,0.01
2012-10-9,63.0,53.8,43.0,43.0,38.3,23.0,69,56,46,30.01,29.72,9,4,17,0.16
2012-10-10,46.0,42.0,38.0,34.0,24.8,15.0,72,52,35,30.11,29.80,10,2,17,0.48
2012-10-11,60.0,45.6,34.0,44.0,31.5,14.0,71,58,38,30.17,29.98,14,3,30,0.10
2012-10-12,52.0,41.0,31.0,34.0,25.5,13.0,73,55,40,30.43,30.17,5,1,12,0.12
2012-10-13,47.0,42.4,33.0,33.0,22.4,16.0,72,47,32,30.32,29.79,6,2,17,0.77
2012-10-14,70.0,52.0,47.0,55.0,24.4,19.0,61,34,26,29.79,29.35,10,4,29,0.70
2012-10-15,49.0,46.3,39.0,39.0,31.2,20.0,71,56,32,29.94,29.54,7,2,18,0.23
2012-10-16,61.0,45.4,31.0,46.0,28.2,8.0,70,52,34,29.94,29.59,6,2,13,0.01
2012-10-17,71.0,61.6,57.0,55.0,48.0,31.0,69,61,37,29.59,29.36,10,3,24,0.10
2012-10-18,60.0,52.2,45.0,47.0,34.6,19.0,72,54,27,29.54,29.21,10,5,24,0.52
2012-10-19,51.0,46.2,44.0,38.0,25.8,16.0,66,46,32,29.53,29.45,6,2,15,0.20
2012-10-20,53.0,45.5,39.0,40.0,22.9,14.0,62,41,32,29.87,29.53,5,1,14,0.01
2012-10-21,62.0,45.8,35.0,46.0,27.0,10.0,69,48,34,30.04,29.87,5,1,10,0.01
2012-10-22,69.0,56.4,46.0,57.0,38.0,19.0,67,52,25,30.00,29.86,5,1,8,1.02
2012-10-23,59.0,59.0,59.0,24.0,24.0,24.0,26,26,26,29.92,29.83,4,1,8,1.28
2012-10-24,76.0,64.7,59.0,62.0,38.1,24.0,61,40,26,29.93,29.82,4,1,7,0.12
2012-10-25,77.0,69.1,51.0,63.0,53.9,20.0,64,59,34,29.84,29.65,13,6,23,0.08
2012-10-26,49.0,43.7,39.0,35.0,29.4,15.0,72,58,30,30.26,29.83,8,4,16,0.30
2012-10-27,49.0,39.2,29.0,34.0,24.6,7.0,70,56,33,30.27,30.17,7,2,14,0.00
2012-10-28,48.0,39.8,33.0,32.0,27.9,24.0,71,63,47,30.27,30.17,7,3,18,0.00
2012-10-29,46.0,39.1,34.0,30.0,27.0,25.0,71,62,49,30.21,29.91,12,6,23,0.00
2012-10-30,41.0,39.8,39.0,30.0,26.8,20.0,70,60,46,29.91,29.61,15,8,30,0.11
2012-10-31,43.0,40.0,38.0,34.0,26.3,15.0,69,58,38,29.72,29.61,9,5,16,0.09
2012-11-1,46.0,40.9,38.0,35.0,30.8,27.0,71,67,61,29.81,29.72,9,4,20,0.01
2012-11-2,43.0,38.5,32.0,33.0,29.2,20.0,71,69,66,30.10,29.81,7,3,15,0.00
2012-11-3,41.0,35.8,30.0,31.0,23.8,12.0,71,62,43,30.20,30.10,4,1,10,0.00
2012-11-4,41.0,35.0,27.0,29.0,25.8,13.0,72,69,59,30.21,30.15,3,1,8,0.00
2012-11-5,39.0,31.7,24.0,29.0,19.8,6.0,72,62,41,30.22,30.14,5,1,8,0.00
2012-11-6,44.0,36.9,29.0,32.0,27.0,18.0,72,67,60,30.14,29.91,6,2,14,0.00
2012-11-7,48.0,38.5,29.0,32.0,28.1,18.0,72,66,52,30.14,29.93,6,2,15,0.00
2012-11-8,44.0,36.1,26.0,35.0,22.5,7.0,70,58,38,30.19,30.10,4,0,9,0.00
2012-11-9,54.0,46.4,36.0,43.0,35.8,21.0,70,66,53,30.12,30.01,5,1,12,0.00
2012-11-10,65.0,55.8,49.0,52.0,45.1,38.0,70,67,58,30.03,29.85,7,3,18,0.00
2012-11-11,69.0,62.8,55.0,55.0,49.5,24.0,69,62,35,29.96,29.76,12,7,25,0.05
2012-11-12,53.0,38.5,31.0,26.0,21.0,11.0,73,53,29,30.23,29.80,13,6,25,0.23
2012-11-13,37.0,30.9,26.0,24.0,21.6,18.0,75,68,56,30.50,30.23,5,1,17,0.01
2012-11-14,41.0,31.6,25.0,27.0,22.0,-99.9,76,69,55,30.55,30.40,6,1,13,0.00
2012-11-15,44.0,34.4,25.0,34.0,25.0,10.0,75,68,48,30.41,30.32,4,1,8,0.00
2012-11-16,52.0,41.0,26.0,41.0,28.5,6.0,71,61,37,30.47,30.35,4,1,8,0.00
2012-11-17,53.0,41.0,27.0,36.0,25.5,5.0,73,55,36,30.56,30.47,6,1,9,0.01
2012-11-18,56.0,42.9,34.0,38.0,30.5,23.0,73,62,42,30.49,30.35,5,1,9,0.01
2012-11-19,55.0,43.6,34.0,39.0,33.2,26.0,74,67,53,30.36,30.11,4,1,7,0.00
2012-11-20,52.0,46.0,39.0,43.0,37.3,31.0,73,71,66,30.13,30.03,2,0,5,0.00
2012-11-21,55.0,46.7,40.0,41.0,28.6,14.0,64,50,33,30.20,30.07,3,1,9,0.00
2012-11-22,62.0,54.8,45.0,48.0,40.8,22.0,70,60,39,30.07,29.67,10,5,21,0.12
2012-11-23,56.0,37.7,31.0,47.0,29.4,22.0,75,72,68,30.06,29.66,13,8,28,0.12
2012-11-24,31.0,29.9,29.0,23.0,21.7,20.0,75,71,66,30.15,29.99,7,4,17,0.00
2012-11-25,37.0,31.3,28.0,29.0,24.1,20.0,76,75,73,29.99,29.81,7,3,13,0.00
2012-11-26,33.0,30.7,29.0,26.0,22.0,19.0,76,70,62,30.30,29.99,6,2,12,0.00
2012-11-27,34.0,27.6,20.0,23.0,19.6,14.0,77,72,62,30.36,30.20,8,1,12,0.00
2012-11-28,37.0,31.9,26.0,28.0,23.3,17.0,77,70,59,30.29,30.18,10,2,16,0.00
2012-11-29,48.0,38.0,26.0,35.0,29.1,16.0,76,70,56,30.25,30.12,7,2,15,0.00
2012-11-30,39.0,37.9,36.0,32.0,29.6,27.0,76,72,63,30.21,30.11,8,4,21,0.00
2012-12-1,59.0,47.1,36.0,50.0,36.9,17.0,73,68,43,30.19,29.86,8,5,18,0.02
2012-12-2,57.0,52.6,35.0,48.0,39.3,11.0,73,61,37,30.05,29.83,9,4,18,0.52
2012-12-3,65.0,38.6,35.0,50.0,15.5,11.0,58,39,37,30.05,29.77,9,4,16,0.01
2012-12-4,65.0,47.8,36.0,51.0,36.5,26.0,72,65,35,30.14,29.76,12,4,26,0.06
2012-12-5,37.0,31.4,28.0,28.0,22.3,20.0,74,69,58,30.40,30.14,7,2,12,0.00
2012-12-6,40.0,33.7,28.0,32.0,24.5,-99.9,75,72,70,30.28,29.90,7,3,14,0.00
2012-12-7,45.0,41.9,39.0,36.0,30.9,13.0,73,66,32,29.93,29.86,2,0,6,0.03
2012-12-8,35.0,31.8,29.0,21.0,9.8,5.0,58,40,34,30.15,29.89,4,1,12,0.22
2012-12-9,34.0,32.4,31.0,25.0,20.6,7.0,71,63,36,30.15,29.66,8,4,18,0.01
2012-12-10,34.0,30.8,26.0,22.0,14.6,7.0,67,52,35,29.86,29.60,6,1,12,0.01
2012-12-11,34.0,30.5,22.0,26.0,20.0,6.0,74,65,39,30.06,29.88,9,4,18,0.01
2012-12-12,44.0,36.9,33.0,32.0,27.6,25.0,74,69,52,30.28,30.05,9,4,18,0.05
2012-12-13,47.0,37.8,31.0,32.0,26.4,24.0,75,64,43,30.27,30.08,9,3,17,0.01
2012-12-14,48.0,39.9,28.0,37.0,29.4,7.0,74,67,35,30.21,30.10,3,1,10,0.00
2012-12-15,42.0,37.4,34.0,32.0,26.4,13.0,75,66,31,30.10,29.57,8,4,17,0.37
2012-12-16,44.0,42.0,41.0,22.0,15.4,14.0,42,33,31,29.64,29.54,7,3,15,0.44
2012-12-17,41.0,39.0,29.0,32.0,26.6,15.0,70,62,34,29.69,29.62,6,1,12,0.01
2012-12-18,38.0,34.1,27.0,30.0,20.5,10.0,72,59,37,29.76,29.65,6,1,10,0.03
2012-12-19,39.0,34.9,34.0,25.0,12.6,9.0,57,40,35,30.07,29.71,5,1,13,0.04
2012-12-20,44.0,38.7,33.0,30.0,17.0,10.0,64,42,33,29.98,29.04,15,7,23,0.74
2012-12-21,38.0,33.5,31.0,26.0,21.8,12.0,74,63,42,30.00,29.10,15,10,29,0.61
2012-12-22,34.0,29.9,27.0,26.0,22.6,20.0,76,74,69,30.10,29.96,8,4,16,0.01
2012-12-23,31.0,26.3,20.0,24.0,18.4,11.0,77,72,55,30.03,29.88,6,1,10,0.00
2012-12-24,29.0,25.4,22.0,22.0,19.1,16.0,78,77,76,30.04,29.85,4,1,12,0.00
2012-12-25,30.0,25.1,18.0,22.0,17.1,9.0,77,71,62,30.33,30.04,4,1,9,0.00
2012-12-26,28.0,25.6,22.0,22.0,18.6,13.0,77,74,66,30.29,29.98,9,4,21,0.00
2012-12-27,31.0,24.3,20.0,23.0,17.7,12.0,78,75,70,30.16,30.03,5,1,12,0.03
2012-12-28,30.0,26.2,20.0,23.0,18.6,13.0,78,73,63,30.15,29.92,5,1,8,0.03
2012-12-29,30.0,27.0,21.0,24.0,19.4,14.0,78,72,64,30.06,29.85,3,1,8,0.02
2012-12-30,28.0,26.7,23.0,22.0,19.4,12.0,78,74,51,30.27,30.06,7,4,20,0.02
2012-12-31,36.0,29.9,25.0,29.0,23.6,18.0,79,77,74,30.11,29.91,8,4,17,0.01
2013-1-1,25.0,22.0,19.0,18.0,14.9,13.0,79,74,67,30.16,30.05,5,2,12,0.01